Location: Vinland
(47.7731°N, 122.6974°W)
Time: 05:33:38
(UTC+00:00)

Vanguard 2 - Pass Details

Date: 26 April 2024
Orbit: 552 x 2914 km, 32.9° (Epoch: 25 May)

Event Time Altitude Azimuth Distance (km) Brightness Sun altitude
Exits shadow 08:37:11 38° 165° (SSE) 3,370 10.2 -28.2°
Maximum altitude 08:38:01 39° 159° (SSE) 3,403 10.3 -28.2°
Drops below altitude 10° 08:53:00 10° 100° (E) 5,723 12.0 -27.7°
Sets 08:58:00 0° 93° (E) 6,758 12.5 -27.5°
